Location: Clover
(42.5131°N, 114.6874°W)
Time: 22:49:13
(UTC+00:00)

Transit 2A - Pass Details

Date: 14 December 2025
Orbit: 589 x 956 km, 66.7° (Epoch: 23 January)

Event Time Altitude Azimuth Distance (km) Brightness Sun altitude
Exits shadow 12:27:52 61° 354° (N) 968 6.3 -27.3°
Drops below altitude 10° 12:33:00 10° 27° (NNE) 2,585 8.9 -26.3°
Sets 12:35:39 0° 30° (NNE) 3,569 9.7 -25.8°
